TimeEDT,TemperatureF,Dew PointF,Humidity,Sea Level PressureIn,VisibilityMPH,Wind Direction,Wind SpeedMPH,Gust SpeedMPH,PrecipitationIn,Events,Conditions,WindDirDegrees,DateUTC
12:16 AM,58.3,51.3,77,29.85,10.0,Calm,Calm,-,N/A,,Overcast,0,2013-06-16 04:16:00
12:35 AM,57.2,52.3,84,29.84,10.0,NNE,6.9,-,N/A,,Drizzle,20,2013-06-16 04:35:00
12:55 AM,56.3,53.1,89,29.84,10.0,Calm,Calm,-,N/A,Rain,Light Rain,0,2013-06-16 04:55:00
1:16 AM,55.9,53.4,91,29.84,5.0,Calm,Calm,-,N/A,,Heavy Drizzle,0,2013-06-16 05:16:00
1:35 AM,55.4,53.6,94,29.83,4.0,Calm,Calm,-,N/A,Rain,Rain,0,2013-06-16 05:35:00
1:56 AM,55.4,53.6,94,29.83,5.0,Calm,Calm,-,N/A,Rain,Rain,0,2013-06-16 05:56:00
2:15 AM,55.4,53.6,94,29.81,4.0,Calm,Calm,-,N/A,Rain,Rain,0,2013-06-16 06:15:00
2:35 AM,55.4,53.8,94,29.79,4.0,East,3.5,-,N/A,Rain,Rain,90,2013-06-16 06:35:00
2:56 AM,54.9,53.4,95,29.77,3.0,SSE,5.8,-,N/A,Rain,Rain,160,2013-06-16 06:56:00
3:15 AM,54.9,53.6,96,29.75,4.0,South,3.5,-,N/A,,Mostly Cloudy,170,2013-06-16 07:15:00
3:34 AM,55.8,54.5,96,29.76,5.0,WNW,5.8,-,N/A,,Mostly Cloudy,300,2013-06-16 07:34:00
3:55 AM,56.8,55.4,95,29.76,5.0,Calm,Calm,-,N/A,,Overcast,0,2013-06-16 07:55:00
4:15 AM,56.3,54.9,95,29.78,5.0,Calm,Calm,-,N/A,,Overcast,0,2013-06-16 08:15:00
4:36 AM,57.4,55.4,93,29.78,5.0,Calm,Calm,-,N/A,,Overcast,0,2013-06-16 08:36:00
4:55 AM,57.2,55.6,94,29.78,4.0,Calm,Calm,-,N/A,Rain,Rain,0,2013-06-16 08:55:00
5:15 AM,57.2,55.8,95,29.77,2.0,Calm,Calm,-,N/A,,Heavy Drizzle,0,2013-06-16 09:15:00
5:36 AM,57.4,55.9,95,29.77,2.5,Calm,Calm,-,N/A,,Light Drizzle,0,2013-06-16 09:36:00
5:55 AM,58.6,57.2,95,29.76,5.0,WSW,4.6,-,N/A,,Overcast,250,2013-06-16 09:55:00
6:15 AM,59.4,58.1,96,29.75,7.0,WSW,4.6,-,N/A,,Overcast,250,2013-06-16 10:15:00
6:36 AM,59.9,58.3,94,29.76,4.0,WSW,3.5,-,N/A,,Overcast,250,2013-06-16 10:36:00
6:55 AM,59.9,58.5,95,29.77,4.0,West,3.5,-,N/A,,Overcast,260,2013-06-16 10:55:00
7:16 AM,60.3,59.0,96,29.77,2.0,Calm,Calm,-,N/A,,Overcast,0,2013-06-16 11:16:00
7:35 AM,60.8,59.4,95,29.77,1.5,WNW,3.5,-,N/A,,Overcast,290,2013-06-16 11:35:00
7:55 AM,61.2,59.7,95,29.77,2.0,Calm,Calm,-,N/A,,Overcast,0,2013-06-16 11:55:00
8:16 AM,61.9,60.3,94,29.77,2.0,Calm,Calm,-,N/A,,Overcast,0,2013-06-16 12:16:00
8:35 AM,62.1,60.3,94,29.77,2.5,Calm,Calm,-,N/A,,Overcast,0,2013-06-16 12:35:00
8:56 AM,62.2,60.3,93,29.78,2.5,West,5.8,-,N/A,,Overcast,280,2013-06-16 12:56:00
9:15 AM,62.6,60.4,93,29.78,3.0,WNW,3.5,-,N/A,,Overcast,290,2013-06-16 13:15:00
9:35 AM,63.3,60.8,91,29.78,4.0,WSW,3.5,-,N/A,,Overcast,240,2013-06-16 13:35:00
9:56 AM,65.7,62.2,89,29.78,7.0,WNW,5.8,-,N/A,,Overcast,290,2013-06-16 13:56:00
10:15 AM,65.8,61.7,86,29.78,7.0,WSW,5.8,-,N/A,,Overcast,250,2013-06-16 14:15:00
10:35 AM,65.8,62.1,88,29.78,10.0,WSW,4.6,-,N/A,,Overcast,250,2013-06-16 14:35:00
10:55 AM,65.8,62.2,88,29.78,7.0,WSW,6.9,-,N/A,,Overcast,240,2013-06-16 14:55:00
11:16 AM,68.7,63.3,83,29.77,7.0,WSW,6.9,-,N/A,,Overcast,240,2013-06-16 15:16:00
11:35 AM,69.3,62.6,79,29.77,10.0,WSW,5.8,-,N/A,,Mostly Cloudy,240,2013-06-16 15:35:00
11:55 AM,69.3,62.4,79,29.76,10.0,South,8.1,-,N/A,,Mostly Cloudy,190,2013-06-16 15:55:00
12:16 PM,71.4,62.8,74,29.75,10.0,SSW,8.1,-,N/A,,Overcast,210,2013-06-16 16:16:00
12:35 PM,72.7,63.0,71,29.75,10.0,SW,9.2,-,N/A,,Scattered Clouds,220,2013-06-16 16:35:00
12:55 PM,72.5,62.8,71,29.75,10.0,South,6.9,-,N/A,,Mostly Cloudy,190,2013-06-16 16:55:00
1:15 PM,70.7,62.1,74,29.75,10.0,SW,10.4,17.3,N/A,,Scattered Clouds,220,2013-06-16 17:15:00
1:35 PM,73.2,62.4,69,29.75,10.0,SW,10.4,-,N/A,,Clear,220,2013-06-16 17:35:00
1:56 PM,73.6,60.4,63,29.75,10.0,SW,10.4,-,N/A,,Scattered Clouds,220,2013-06-16 17:56:00
2:13 PM,73.2,60.1,63,29.75,10.0,WSW,12.7,21.9,N/A,,Scattered Clouds,240,2013-06-16 18:13:00
2:35 PM,72.9,60.3,65,29.75,10.0,WSW,18.4,21.9,N/A,,Scattered Clouds,240,2013-06-16 18:35:00
2:55 PM,73.9,61.0,64,29.75,10.0,SW,17.3,23.0,N/A,,Clear,230,2013-06-16 18:55:00
3:15 PM,73.9,59.0,59,29.75,10.0,WSW,13.8,18.4,N/A,,Clear,250,2013-06-16 19:15:00
3:36 PM,75.0,58.3,56,29.76,10.0,SW,12.7,20.7,N/A,,Clear,230,2013-06-16 19:36:00
3:55 PM,73.4,56.1,55,29.76,10.0,WSW,15.0,25.3,N/A,,Clear,240,2013-06-16 19:55:00
4:15 PM,72.3,55.6,56,29.77,10.0,WSW,9.2,17.3,N/A,,Clear,240,2013-06-16 20:15:00
4:36 PM,73.6,56.1,54,29.77,10.0,WSW,11.5,23.0,N/A,,Scattered Clouds,240,2013-06-16 20:36:00
4:55 PM,74.8,55.6,51,29.77,10.0,WSW,16.1,-,N/A,,Scattered Clouds,240,2013-06-16 20:55:00
5:15 PM,74.7,55.8,52,29.77,10.0,WSW,10.4,17.3,N/A,,Clear,240,2013-06-16 21:15:00
5:36 PM,73.9,56.5,54,29.78,10.0,WSW,13.8,18.4,N/A,,Clear,250,2013-06-16 21:36:00
5:55 PM,75.2,57.6,54,29.78,10.0,WSW,12.7,17.3,N/A,,Clear,250,2013-06-16 21:55:00
6:15 PM,75.4,56.3,51,29.78,10.0,WSW,11.5,-,N/A,,Scattered Clouds,250,2013-06-16 22:15:00
6:35 PM,75.0,57.0,53,29.78,10.0,WSW,8.1,16.1,N/A,,Scattered Clouds,240,2013-06-16 22:35:00
6:55 PM,75.4,55.9,51,29.78,10.0,WSW,9.2,-,N/A,,Clear,250,2013-06-16 22:55:00
7:16 PM,72.5,56.1,56,29.79,10.0,WSW,9.2,17.3,N/A,,Mostly Cloudy,250,2013-06-16 23:16:00
7:35 PM,71.6,54.5,55,29.79,10.0,WSW,9.2,17.3,N/A,,Scattered Clouds,250,2013-06-16 23:35:00
7:55 PM,72.5,54.5,53,29.79,10.0,WSW,6.9,-,N/A,,Clear,250,2013-06-16 23:55:00
8:16 PM,71.8,53.8,53,29.79,10.0,West,5.8,-,N/A,,Clear,260,2013-06-17 00:16:00
8:35 PM,70.3,54.7,58,29.80,10.0,WSW,6.9,-,N/A,,Clear,250,2013-06-17 00:35:00
8:55 PM,68.0,55.0,63,29.80,10.0,WSW,5.8,-,N/A,,Clear,250,2013-06-17 00:55:00
9:16 PM,65.7,55.6,70,29.80,10.0,WSW,4.6,-,N/A,,Clear,240,2013-06-17 01:16:00
9:35 PM,64.8,54.9,70,29.81,10.0,West,4.6,-,N/A,,Clear,260,2013-06-17 01:35:00
9:55 PM,62.4,54.9,76,29.82,10.0,North,4.6,-,N/A,,Scattered Clouds,350,2013-06-17 01:55:00
10:15 PM,61.7,54.5,77,29.83,10.0,NNW,4.6,-,N/A,Rain,Light Rain,330,2013-06-17 02:15:00
10:35 PM,63.9,52.9,67,29.86,10.0,West,11.5,-,N/A,,Overcast,280,2013-06-17 02:35:00
10:56 PM,63.0,52.5,69,29.82,10.0,NNE,3.5,-,N/A,,Mostly Cloudy,30,2013-06-17 02:56:00
11:15 PM,61.5,52.7,73,29.82,10.0,Calm,Calm,-,N/A,,Mostly Cloudy,0,2013-06-17 03:15:00
11:35 PM,58.5,52.5,81,29.82,10.0,West,3.5,-,N/A,,Scattered Clouds,260,2013-06-17 03:35:00
11:55 PM,57.6,52.9,84,29.83,10.0,WNW,3.5,-,N/A,,Scattered Clouds,290,2013-06-17 03:55:00